GW1187 Weather Reports


Display with metric or nautical units.
time (UTC)temp
F
wind
direction
speed
MPH
gust
MPH
rain 1hr
in
rain 24hr
in
rain mn
in
humidity
%
barometer
mb
20260510220048 67 153 2.0 9.0 0.00 0.01 0.00 45 1011.4
20260510214601 67 146 1.0 5.0 0.00 0.06 0.00 49 1011.0
20260510213049 69 0 0.0 5.0 0.00 0.06 0.00 47 1010.9
20260510211544 70 0 1.0 5.0 0.00 0.06 0.00 44 1010.6
20260510210041 72 0 0.0 4.0 0.00 0.06 0.00 45 1010.6
20260510204558 71 0 0.0 5.0 0.00 0.14 0.00 49 1010.5
20260510203048 70 0 1.0 10.0 0.00 0.14 0.00 49 1010.6
20260510201547 70 0 2.0 9.0 0.00 0.14 0.00 49 1010.7
20260510200049 71 0 2.0 9.0 0.00 0.14 0.00 49 1010.7
20260510194544 71 337 2.0 9.0 0.00 0.20 0.00 50 1010.7
20260510193057 70 318 4.0 11.0 0.00 0.20 0.00 54 1010.7
20260510191549 68 191 1.0 9.0 0.00 0.20 0.00 58 1010.9
20260510190048 68 115 1.0 4.0 0.00 0.20 0.00 59 1011.0
20260510184556 68 131 1.0 6.0 0.00 0.25 0.00 59 1010.8
20260510183047 68 0 3.0 7.0 0.00 0.25 0.00 59 1010.8
20260510181541 69 135 3.0 10.0 0.00 0.25 0.00 58 1010.7
20260510180051 69 33 3.0 9.0 0.00 0.25 0.00 57 1010.9
20260510174551 68 51 2.0 10.0 0.00 0.34 0.00 59 1011.1
20260510173047 67 343 5.0 13.0 0.00 0.34 0.00 60 1011.1
20260510171546 67 304 4.0 8.0 0.00 0.34 0.00 62 1011.2
20260510170047 66 3 5.0 8.0 0.00 0.34 0.00 64 1011.4
20260510164541 66 158 2.0 7.0 0.00 0.44 0.00 65 1011.5
20260510163041 65 330 4.0 9.0 0.00 0.44 0.00 65 1011.5
20260510161548 64 350 4.0 11.0 0.00 0.44 0.00 67 1011.6
20260510160050 65 67 2.0 8.0 0.00 0.44 0.00 69 1011.6
20260510154542 63 87 2.0 6.0 0.00 0.49 0.00 72 1011.7
20260510153041 62 42 4.0 9.0 0.00 0.49 0.00 74 1011.6
20260510151550 60 17 3.0 6.0 0.00 0.49 0.00 78 1012.0
20260510150045 59 44 0.0 4.0 0.00 0.49 0.00 81 1011.6
20260510144547 58 18 2.0 7.0 0.00 0.52 0.00 83 1012.0
20260510143046 57 48 3.0 7.0 0.00 0.52 0.00 84 1012.1
20260510141552 55 25 1.0 6.0 0.00 0.52 0.00 87 1012.1
20260510140054 55 49 2.0 8.0 0.00 0.52 0.00 89 1012.2
20260510134542 54 25 4.0 6.0 0.00 0.54 0.00 90 1012.2
20260510133047 53 333 2.0 6.0 0.00 0.54 0.00 92 1012.1
20260510131547 52 356 2.0 4.0 0.00 0.54 0.00 93 1012.0
20260510130046 52 34 2.0 6.0 0.00 0.54 0.00 94 1011.9
20260510124553 51 34 1.0 6.0 0.00 0.58 0.00 95 1012.1
20260510123050 51 3 2.0 4.0 0.00 0.58 0.00 95 1012.1
20260510121541 51 350 3.0 5.0 0.00 0.58 0.00 95 1012.1
20260510120047 50 0 0.0 1.0 0.00 0.58 0.00 96 1012.4
20260510114545 50 332 2.0 6.0 0.00 0.58 0.00 96 1012.0
20260510113043 50 9 2.0 6.0 0.00 0.58 0.00 96 1012.0
20260510111540 50 24 0.0 5.0 0.00 0.58 0.00 96 1011.6
20260510110050 50 297 0.0 3.0 0.00 0.58 0.00 96 1011.6
20260510104548 49 44 0.0 3.0 0.00 0.58 0.00 96 1011.4
20260510103057 49 0 0.0 1.0 0.00 0.58 0.00 96 1011.0
20260510101550 49 60 0.0 2.0 0.00 0.58 0.00 96 1011.0
20260510100044 49 18 0.0 2.0 0.00 0.58 0.00 96 1010.5
20260510094545 49 0 0.0 0.0 0.00 0.58 0.00 97 1010.6
20260510093048 48 0 0.0 0.0 0.00 0.58 0.00 97 1010.6
20260510091547 48 0 0.0 0.0 0.00 0.58 0.00 97 1010.4
20260510090056 47 0 0.0 0.0 0.00 0.58 0.00 96 1010.8
20260510084545 47 0 0.0 0.0 0.00 0.58 0.00 96 1010.7
20260510083041 47 0 0.0 0.0 0.00 0.58 0.00 96 1010.9
20260510081602 47 0 0.0 0.0 0.00 0.58 0.00 96 1010.8
20260510080050 47 0 0.0 0.0 0.00 0.58 0.00 96 1010.7
20260510074547 46 0 0.0 0.0 0.00 0.58 0.00 96 1010.6
20260510073049 46 0 0.0 0.0 0.00 0.58 0.00 96 1010.7
20260510071546 46 0 0.0 0.0 0.00 0.58 0.00 96 1010.6
20260510070047 46 0 0.0 0.0 0.00 0.58 0.00 96 1010.6
20260510064541 46 0 0.0 0.0 0.00 0.58 0.00 96 1010.6
20260510063048 46 0 0.0 0.0 0.00 0.58 0.00 96 1010.8
20260510061557 46 0 0.0 0.0 0.00 0.58 0.00 96 1010.7
20260510060047 46 0 0.0 0.0 0.00 0.58 0.00 96 1010.5
20260510054557 46 0 0.0 0.0 0.00 0.58 0.00 96 1010.9
20260510053045 46 0 0.0 0.0 0.00 0.58 0.00 96 1010.7
20260510051548 46 0 0.0 0.0 0.00 0.58 0.00 96 1010.9
20260510050053 46 0 0.0 0.0 0.00 0.58 0.00 96 1011.0
20260510044548 46 0 0.0 0.0 0.00 0.58 0.00 96 1011.2
20260510043047 46 0 0.0 0.0 0.00 0.58 0.00 96 1011.1
20260510041601 46 0 0.0 0.0 0.00 0.58 0.00 96 1011.3
20260510040042 46 0 0.0 0.0 0.00 0.58 0.00 96 1011.1
20260510034545 46 0 0.0 0.0 0.00 0.58 0.58 96 1011.1
20260510033052 46 0 0.0 0.0 0.00 0.58 0.58 96 1011.4
20260510031553 46 0 0.0 0.0 0.00 0.58 0.58 96 1011.6
20260510030046 46 0 0.0 0.0 0.00 0.58 0.58 96 1011.7
20260510024604 46 0 0.0 0.0 0.00 0.58 0.58 96 1011.7
20260510023041 45 0 0.0 0.0 0.00 0.58 0.58 96 1011.9
20260510021547 45 0 0.0 0.0 0.00 0.58 0.58 96 1011.9
20260510020047 45 0 0.0 0.0 0.00 0.58 0.58 96 1011.9
20260510014608 45 0 0.0 0.0 0.00 0.58 0.58 96 1012.1
20260510013059 45 0 0.0 0.0 0.00 0.58 0.58 95 1012.1
20260510011544 45 0 0.0 0.0 0.00 0.58 0.58 95 1011.7
20260510010041 45 0 0.0 0.0 0.00 0.58 0.58 95 1011.6
20260510004547 45 0 0.0 0.0 0.00 0.58 0.58 95 1011.6
20260510003048 45 0 0.0 0.0 0.00 0.58 0.58 95 1011.4
20260510001546 45 0 0.0 0.0 0.00 0.58 0.58 95 1011.4
20260510000046 45 0 0.0 0.0 0.00 0.58 0.58 95 1011.4
20260509234543 45 0 0.0 0.0 0.00 0.58 0.58 95 1011.4
20260509233043 45 0 0.0 0.0 0.00 0.58 0.58 95 1011.3
20260509231546 46 0 0.0 0.0 0.00 0.58 0.58 95 1011.2
20260509230048 45 0 0.0 0.0 0.01 0.58 0.58 95 1011.2
20260509224546 45 0 0.0 0.0 0.02 0.58 0.58 95 1011.2
20260509223051 45 0 0.0 0.0 0.03 0.58 0.58 95 1011.2
20260509221547 45 0 0.0 0.0 0.04 0.58 0.58 95 1011.2